Meteo Giornale » Osservazioni meteo Stati Uniti (USA) » Manassas

ore: 16:56 - Osservazioni Meteo Manassas
Lat. 38° 43' N Lon. 77° 31' W Alt. 59 metri s.l.m.

sereno

29 °C

Sereno

Temp. 24 Ore

20 °C

31 °C

Nord/NOvest

11.1 Km/h

Dew point 23 °C

Umidità 70 %

Visibilità  10 Km

Il sole sorge alle ore 06:38

Il sole tramonta alle ore 19:42

Data e Ora Cielo e Fenomeni T °C DP °C Um. % Pres. hPa Vis. km Vento km/h
Oggi h: 16:56 sereno Sereno 29 23 70 1018 10 N/NO 11.1
Oggi h: 15:56 sereno Sereno 31 22 58 1018 10 O/NO 11.1
Oggi h: 14:56 molto_nuvoloso Molto Nuvoloso 31 22 58 1019 10 N 0
Oggi h: 13:56 nuvoloso Nuvoloso 31 22 58 1019 10 N 0
Oggi h: 12:56 poco_nuvoloso Poco Nuvoloso 30 23 66 1019 10 E 11.1
Oggi h: 11:56 poco_nuvoloso Poco Nuvoloso 29 22 66 1020 10 N 5.5
Oggi h: 10:56 nuvoloso Nuvoloso 29 23 70 1020 10 N/NE 11.1
Oggi h: 09:56 foschia Foschia 27 22 74 1020 10 N 7.4
Oggi h: 08:56 sereno Sereno 26 22 78 1020 10 N/NE 14.8
Oggi h: 07:56 sereno Sereno 23 21 88 1020 10 N 0
Oggi h: 06:56 sereno Sereno 20 19 93 1019 10 N 0
Oggi h: 05:56 sereno Sereno 21 20 94 1019 10 N 0
Oggi h: 04:56 sereno Sereno 20 19 93 1019 10 N 0
Oggi h: 03:56 sereno Sereno 20 19 93 1018 10 N 0
Oggi h: 02:56 sereno Sereno 21 21 100 1018 10 N 0
Oggi h: 01:56 sereno Sereno 21 21 100 1019 10 N 0
Oggi h: 00:56 sereno Sereno 22 21 94 1019 10 N 0
Ieri h: 23:56 sereno Sereno 22 21 94 1019 10 N 0
Ieri h: 22:56 sereno Sereno 23 22 94 1019 10 N 0
Ieri h: 21:56 sereno Sereno 23 21 88 1020 10 N 0
Ieri h: 20:56 sereno Sereno 24 22 88 1019 10 N 5.5
Ieri h: 19:56 nuvoloso Nuvoloso 26 21 73 1019 10 NE 14.8
Ieri h: 19:45 molto_nuvoloso Molto Nuvoloso 26 21 73 1019 10 NE 9.3
Ieri h: 19:17 nuvoloso_temporali Temporale nelle vicinanze 28 22 69 1019 10 SE 9.3
Ieri h: 18:56 molto_nuvoloso Molto Nuvoloso 28 21 65 1019 10 E 9.3
Ieri h: 17:56 nuvoloso Nuvoloso 29 22 66 1018 10 S 11.1